Probability
0 0 0 0 0 0 0 0 0 0 0 13 10 3 0 0 0 0 0 0 0 0 0 0 0 0 0 0 0 0 0 0 0 0 0 0 0 0 0 0 0 0 0 0
0 0 0 0 0 0 0 0 0 0 0 3 0 0 0 0 0 0 0 0 0 0 0 0 0 0 0 0 0 0 0 0 0 0 0 0 0 0 0 0 0 0 0 0
0 0 0 0 0 0 0 0 0 0 0 0 0 0 0 0 0 0 0 0 0 0 0 0 0 0 0 0 0 0 0 0 0 0 0 0 0 0 0 0 0 0 0 0
0 0 0 0 0 0 0 0 0 0 0 0 0 0 0 0 0 0 0 0 0 0 0 0 0 0 0 0 0 0 0 0 0 0 0 0 0 0 0 0 0 0 0 0
0 0 0 0 0 0 0 0 0 0 0 0 0 0 0 0 0 0 0 0 0 0 0 0 0 0 0 0 0 0 0 0 0 0 0 0 0 0 0 0 0 0 0 0
0 0 0 0 0 0 0 0 0 0 0 0 0 0 0 0 0 0 0 0 0 0 0 0 0 0 0 0 0 0 0 0 0 0 0 0 0 0 0 0 0 0 0 0
0 0 0 0 0 0 0 0 0 0 0 0 0 0 0 0 0 0 0 0 0 0 0 0 0 0 0 0 0 0 0 0 0 0 0 0 0 0 0 0 0 0 0 0
0 0 0 0 0 0 0 0 0 0 0 0 0 0 0 0 0 0 0 0 0 0 0 0 0 0 0 0 0 0 0 0 0 0 0 0 0 0 0 0 0 0 0 0
0 0 0 0 0 0 0 0 0 0 0 0 0 0 0 0 0 0 0 0 0 0 0 0 0 0 0 0 0 0 0 0 0 0 0 0 0 0 0 0 0 0 0 0
0 0 0 0 0 0 0 0 0 0 0 0 0 0 0 0 0 0 0 0 0 0 0 0 0 0 0 0 0 0 0 0 0 0 0 0 0 0 0 0 0 0 0 0
0 0 0 0 0 0 0 0 0 0 0 0 0 0 0 0 0 0 0 0 0 0 0 0 0 0 0 0 0 0 0 0 0 0 0 0 0 0 0 0 0 0 0 0
0 0 0 0 0 0 0 0 0 0 0 0 0 0 0 0 0 0 0 0 0 0 0 0 0 0 0 0 0 0 0 0 0 0 0 0 0 0 0 0 0 0 0 0
0 0 0 0 0 0 0 0 0 0 0 0 0 0 0 0 0 0 0 0 0 0 0 0 0 0 0 0 0 0 0 0 0 0 0 0 0 0 0 0 0 0 0 0
0 0 0 0 0 0 0 0 0 0 0 0 0 0 0 0 0 0 0 0 0 0 0 0 0 0 0 0 0 0 0 0 0 0 0 0 0 0 0 0 0 0 0 0
0 0 0 0 0 0 0 0 0 0 0 0 0 0 0 0 0 0 0 0 0 0 0 0 0 0 0 0 0 0 0 0 0 0 0 0 0 0 0 0 0 0 0 0
0 0 0 0 0 0 0 0 0 0 0 0 0 0 0 0 0 0 0 0 0 0 0 0 0 0 0 0 0 0 0 0 0 0 0 0 0 0 0 0 0 0 0 0
0 0 0 0 0 0 0 0 0 0 0 0 0 0 0 0 0 0 0 0 0 0 0 0 0 0 0 0 0 0 0 0 0 0 0 0 0 0 0 0 0 0 0 0
0 0 0 0 0 0 0 0 0 0 0 0 0 0 0 0 0 0 0 0 0 0 0 0 0 0 0 0 0 0 0 0 0 0 0 0 0 0 0 0 0 0 0 0
0 0 0 0 0 0 0 0 0 0 0 0 0 0 0 0 0 0 0 0 0 0 0 0 0 0 0 0 0 0 0 0 0 0 0 0 0 0 0 0 0 0 0 0
0 0 0 0 0 0 0 0 0 0 0 0 0 0 0 0 0 0 0 0 0 0 0 0 0 0 0 0 0 0 0 0 0 0 0 0 0 0 0 0 0 0 0 0
0 0 0 0 0 0 0 0 0 0 0 0 0 0 0 0 0 0 0 0 0 0 0 0 0 0 0 0 0 0 0 0 0 0 0 0 0 0 0 0 0 0 0 0
0 0 0 0 0 0 0 0 0 0 0 0 0 0 0 0 0 0 0 0 0 0 0 0 0 0 0 0 0 0 0 0 0 0 0 0 0 0 0 0 0 0 0 0
0 0 0 0 0 0 0 0 0 0 0 0 0 0 0 0 0 0 0 0 0 0 0 0 0 0 0 0 0 0 0 0 0 0 0 0 0 0 0 0 0 0 0 0
0 0 0 0 0 0 0 0 0 0 0 0 0 0 0 0 0 0 0 0 0 0 0 0 0 0 0 0 0 0 0 0 0 0 0 0 0 0 0 0 0 0 0 0
0 0 0 0 0 0 0 0 0 0 0 0 0 0 0 0 0 0 0 0 0 0 0 0 0 0 0 0 0 0 0 0 0 0 0 0 0 0 0 0 0 0 0 0
0 0 0 0 0 0 0 0 0 0 0 0 0 0 0 0 0 0 0 0 0 0 0 0 0 0 0 0 0 0 0 0 0 0 0 0 0 0 0 0 0 0 0 0
0 0 0 0 0 0 0 0 0 0 0 0 0 0 0 0 0 0 0 0 0 0 0 0 0 0 0 0 0 0 0 0 0 0 0 0 0 0 0 0 0 0 0 0
Height
5738 5740 5742 5744 5747 5749 5752 5755 5757 5758 5760 5761 5762 5763 5764 5764 5765 5765 5765 5765 5764 5764 5763 5761 5759 5757 5755 5752 5749 5746 5744 5741 5738 5734 5729 5725 5721 5716 5712 5707 5701 5696 5691 5685
5729 5731 5733 5736 5739 5742 5744 5746 5748 5750 5751 5752 5752 5753 5754 5754 5755 5755 5755 5755 5754 5753 5752 5751 5749 5747 5744 5741 5738 5735 5732 5729 5725 5721 5717 5713 5708 5704 5699 5693 5688 5683 5678 5673
5720 5721 5723 5727 5730 5732 5735 5736 5738 5740 5742 5742 5742 5743 5744 5744 5745 5745 5745 5744 5744 5743 5741 5740 5737 5735 5732 5730 5726 5723 5720 5716 5712 5708 5704 5700 5696 5691 5686 5680 5675 5670 5665 5660
5710 5712 5715 5719 5720 5722 5724 5726 5729 5731 5732 5732 5732 5732 5733 5733 5734 5735 5735 5734 5733 5732 5730 5728 5725 5723 5720 5717 5714 5711 5707 5703 5699 5695 5691 5687 5682 5677 5673 5668 5663 5658 5653 5648
5703 5704 5706 5709 5711 5713 5715 5717 5720 5722 5722 5722 5722 5722 5723 5724 5724 5724 5724 5723 5722 5720 5718 5715 5713 5710 5707 5704 5701 5697 5693 5689 5686 5682 5678 5673 5669 5664 5660 5655 5651 5646 5641 5636
5696 5698 5700 5703 5704 5705 5708 5710 5712 5712 5713 5714 5714 5715 5715 5715 5714 5713 5712 5711 5710 5708 5706 5703 5700 5697 5694 5691 5687 5684 5680 5677 5673 5669 5664 5660 5656 5652 5648 5643 5639 5634 5629 5624
5691 5692 5694 5696 5697 5699 5703 5703 5703 5704 5704 5705 5706 5706 5706 5704 5703 5703 5702 5700 5699 5697 5694 5692 5689 5685 5682 5678 5675 5671 5668 5664 5660 5656 5652 5648 5644 5640 5635 5631 5627 5622 5617 5612
5686 5687 5690 5689 5690 5693 5694 5695 5695 5695 5696 5696 5696 5696 5695 5694 5693 5692 5691 5690 5688 5686 5683 5680 5677 5674 5670 5667 5663 5659 5656 5652 5648 5644 5640 5636 5632 5628 5624 5619 5615 5610 5605 5600
5684 5685 5685 5685 5685 5686 5687 5687 5688 5688 5688 5688 5688 5687 5687 5686 5685 5684 5682 5681 5679 5676 5673 5670 5666 5663 5659 5655 5651 5648 5644 5641 5637 5633 5629 5625 5621 5616 5612 5607 5603 5598 5594 5590
5680 5680 5680 5681 5681 5681 5681 5681 5681 5681 5681 5681 5681 5680 5680 5679 5677 5676 5674 5672 5669 5666 5663 5660 5656 5652 5649 5645 5642 5638 5634 5630 5626 5622 5618 5614 5609 5605 5601 5596 5592 5588 5585 5581
5677 5677 5676 5676 5676 5676 5675 5675 5675 5674 5674 5673 5673 5672 5672 5670 5669 5667 5665 5663 5660 5657 5654 5651 5647 5644 5640 5637 5633 5629 5624 5620 5616 5611 5607 5603 5599 5595 5591 5588 5584 5581 5578 5574
5674 5673 5672 5671 5670 5670 5669 5668 5668 5667 5666 5666 5666 5665 5664 5663 5661 5659 5657 5655 5653 5650 5647 5644 5641 5637 5633 5629 5624 5620 5615 5610 5606 5602 5598 5594 5591 5588 5584 5581 5577 5574 5571 5568
5669 5668 5667 5666 5665 5663 5662 5661 5661 5660 5660 5660 5659 5659 5658 5657 5656 5654 5652 5650 5648 5645 5642 5639 5635 5631 5626 5621 5616 5611 5606 5602 5597 5594 5590 5587 5584 5581 5578 5575 5571 5568 5565 5563
5666 5664 5662 5661 5659 5658 5657 5656 5656 5655 5655 5655 5655 5655 5654 5653 5653 5651 5649 5647 5645 5642 5638 5635 5630 5625 5620 5614 5609 5604 5599 5595 5591 5587 5584 5581 5579 5576 5573 5570 5568 5565 5563 5560
5663 5661 5660 5658 5656 5655 5654 5653 5653 5653 5653 5653 5653 5653 5652 5652 5651 5650 5648 5645 5642 5639 5635 5631 5626 5620 5614 5609 5603 5598 5593 5589 5585 5582 5579 5576 5574 5572 5570 5568 5566 5564 5562 5560
5662 5660 5658 5657 5655 5654 5653 5653 5652 5652 5652 5652 5652 5652 5652 5651 5650 5649 5647 5645 5642 5638 5633 5628 5622 5616 5610 5604 5598 5593 5588 5584 5580 5578 5575 5573 5572 5570 5569 5567 5566 5564 5563 5562
5661 5660 5659 5657 5656 5655 5654 5653 5653 5653 5653 5653 5653 5653 5652 5652 5651 5649 5647 5645 5641 5636 5631 5625 5619 5613 5606 5600 5594 5589 5585 5581 5578 5576 5574 5572 5571 5570 5569 5568 5567 5566 5565 5565
5661 5660 5659 5657 5656 5656 5655 5655 5655 5654 5654 5654 5654 5654 5654 5654 5652 5651 5648 5645 5641 5636 5630 5624 5617 5611 5605 5598 5593 5588 5583 5580 5578 5576 5575 5573 5572 5571 5571 5570 5570 5569 5569 5569
5660 5659 5659 5658 5658 5657 5657 5657 5657 5657 5656 5657 5657 5657 5657 5656 5654 5652 5649 5645 5641 5636 5630 5624 5618 5612 5605 5599 5593 5588 5585 5582 5580 5578 5577 5576 5575 5575 5574 5574 5574 5574 5574 5574
5660 5660 5659 5659 5659 5659 5659 5659 5659 5659 5659 5660 5660 5660 5659 5658 5657 5654 5651 5647 5642 5637 5632 5626 5620 5614 5608 5602 5596 5592 5588 5585 5583 5582 5580 5580 5579 5579 5579 5578 5578 5579 5579 5579
5659 5660 5660 5660 5661 5661 5661 5661 5661 5662 5662 5663 5663 5662 5662 5661 5659 5656 5653 5650 5645 5641 5636 5630 5624 5618 5612 5606 5601 5597 5593 5590 5588 5587 5585 5585 5584 5584 5584 5584 5584 5584 5584 5584
5659 5660 5661 5661 5662 5662 5663 5663 5664 5664 5665 5665 5665 5665 5664 5663 5661 5659 5656 5653 5649 5645 5641 5635 5630 5624 5618 5612 5607 5603 5600 5597 5595 5593 5591 5591 5590 5590 5590 5590 5589 5589 5589 5589
5658 5660 5661 5662 5663 5664 5664 5665 5666 5666 5667 5668 5668 5667 5666 5665 5664 5662 5660 5656 5653 5650 5646 5641 5636 5630 5625 5619 5615 5610 5607 5604 5601 5599 5598 5596 5596 5595 5595 5595 5594 5594 5594 5593
5657 5660 5661 5663 5664 5664 5665 5666 5667 5668 5669 5669 5670 5669 5669 5668 5667 5665 5663 5660 5657 5654 5650 5646 5642 5637 5632 5627 5622 5618 5614 5611 5608 5605 5603 5601 5600 5600 5600 5599 5599 5599 5598 5598
5656 5659 5661 5662 5663 5664 5665 5667 5668 5669 5670 5671 5671 5671 5671 5671 5670 5668 5666 5664 5662 5659 5655 5652 5648 5644 5640 5635 5631 5626 5622 5618 5614 5610 5607 5605 5604 5604 5603 5603 5603 5603 5603 5602
5655 5657 5659 5661 5663 5664 5665 5666 5668 5669 5670 5671 5672 5673 5673 5673 5672 5671 5670 5668 5666 5663 5660 5658 5655 5651 5647 5643 5639 5634 5630 5625 5621 5617 5613 5610 5608 5607 5607 5607 5607 5607 5607 5606
5653 5655 5658 5660 5661 5663 5664 5665 5667 5669 5670 5672 5673 5673 5674 5675 5675 5674 5673 5671 5669 5667 5665 5663 5660 5657 5654 5650 5646 5642 5638 5634 5629 5625 5620 5617 5614 5612 5612 5612 5612 5611 5611 5610
Wind_Speed
33 35 36 35 36 36 37 38 38 38 39 41 42 40 38 37 36 35 35 36 37 39 41 42 44 45 46 45 43 43 44 45 47 48 49 50 51 53 54 57 59 60 60 60
37 38 40 40 39 40 40 39 40 42 43 44 43 43 41 40 39 38 39 39 41 42 43 44 44 46 46 47 47 47 47 46 47 48 49 50 51 53 54 56 57 57 57 57
39 40 41 43 43 43 43 42 42 42 43 45 43 42 41 40 38 38 38 38 39 41 43 44 46 48 49 49 48 48 47 46 47 47 48 49 51 52 53 54 54 55 56 56
37 39 40 39 38 38 39 39 39 40 39 39 38 37 37 37 37 38 40 42 44 46 47 49 50 50 50 49 49 48 47 46 46 46 47 49 50 50 51 52 52 53 54 54
31 33 36 35 33 32 32 32 32 34 34 34 34 34 35 36 38 40 43 45 46 48 49 50 50 50 50 50 48 47 45 45 45 46 47 48 48 48 49 49 50 51 51 51
25 27 28 28 28 27 28 29 29 30 32 33 35 35 36 37 39 41 42 44 45 47 48 49 49 49 48 47 45 43 43 43 44 45 46 46 46 47 47 48 48 49 49 49
20 22 23 24 24 24 25 27 29 31 32 34 35 36 37 39 40 41 42 43 44 45 46 46 46 45 44 43 42 42 42 43 43 43 44 44 45 45 46 46 47 47 47 47
15 16 16 18 20 22 23 24 26 28 30 32 34 35 36 37 37 38 39 40 41 41 41 41 41 41 41 41 41 41 41 41 41 41 42 42 43 44 44 45 45 45 44 42
14 14 14 15 17 19 20 22 24 26 28 29 30 31 32 33 33 34 36 37 37 38 39 39 39 39 39 38 38 38 38 38 38 39 40 41 42 43 43 42 41 39 37 34
13 14 15 16 17 18 20 22 23 25 26 27 29 30 30 31 32 33 34 35 36 36 36 36 35 34 33 34 34 34 35 36 37 38 40 40 40 40 39 36 34 31 29 28
13 14 16 17 18 20 21 23 24 26 27 28 29 30 31 31 31 32 32 31 31 30 28 27 27 27 28 30 31 33 35 36 37 38 38 37 35 33 31 29 27 27 26 25
15 16 17 18 20 21 23 24 25 26 27 27 27 27 27 26 26 25 24 23 21 20 20 21 23 24 26 29 31 33 34 35 34 33 32 30 28 27 26 25 25 24 22 21
15 16 17 18 19 20 20 21 21 20 20 20 20 19 19 19 17 16 15 15 16 17 18 19 21 24 27 29 30 31 31 30 29 27 26 25 23 23 22 21 19 18 17 15
14 15 15 15 15 15 15 14 14 13 12 12 12 11 11 10 9 10 12 12 13 14 16 19 22 24 26 27 28 28 27 26 24 23 22 20 19 17 16 14 13 12 12 11
12 12 12 11 9 8 7 6 5 5 5 4 4 4 4 5 6 7 8 9 12 15 17 20 22 23 24 24 24 23 22 21 20 18 16 15 13 11 9 9 8 8 8 7
10 9 7 6 5 4 3 2 2 1 1 0 0 1 2 3 4 6 8 11 13 16 18 20 22 23 23 22 21 20 19 17 15 13 11 9 8 6 5 5 5 6 7 8
7 5 3 4 4 5 4 4 4 3 3 4 4 5 6 7 8 10 11 12 15 17 19 21 23 23 22 22 20 19 17 14 11 9 8 6 6 5 5 6 8 9 11 13
4 2 2 3 4 4 5 5 5 5 6 7 8 9 10 10 11 11 12 15 17 20 22 23 23 23 22 22 20 17 14 12 10 8 8 7 8 9 10 11 12 14 15 16
3 1 1 3 3 4 5 5 6 7 8 10 11 12 12 12 12 13 15 18 20 23 24 25 25 25 24 22 20 17 15 13 11 11 11 12 13 13 14 15 16 17 17 17
2 0 2 3 4 5 6 6 7 8 10 11 12 12 12 13 14 16 18 20 23 25 26 27 27 27 26 24 22 19 17 16 15 15 15 16 16 17 17 17 18 18 18 17
4 3 4 5 5 6 6 7 7 9 10 11 11 12 12 14 15 17 19 21 24 26 27 28 28 29 28 26 25 23 22 21 20 19 18 18 19 19 19 19 18 18 17 16
7 6 6 6 6 6 6 7 8 9 10 10 10 11 12 14 15 17 19 21 24 25 26 28 29 30 30 29 27 26 25 24 23 21 20 19 19 19 18 18 17 17 16 15
10 9 8 7 7 7 7 7 8 9 9 9 9 10 12 14 15 16 19 21 23 24 25 27 29 30 31 31 30 28 27 25 23 21 19 18 17 17 17 16 16 16 15 15
13 11 10 9 8 7 7 7 7 8 8 8 8 10 11 12 14 15 17 20 21 23 25 26 28 29 31 32 31 30 28 26 23 20 17 16 15 15 15 15 15 15 15 15
15 13 11 10 9 8 7 7 8 8 9 8 8 9 10 11 12 14 16 17 19 21 23 25 26 28 29 30 31 30 29 28 25 22 19 15 13 13 13 13 14 15 15 15
17 15 13 10 9 8 8 8 9 9 9 9 8 8 9 10 11 12 14 15 17 19 21 22 24 26 27 29 30 30 30 29 28 26 23 19 16 14 14 14 14 14 15 15
18 16 14 12 11 10 9 9 10 11 11 10 9 9 8 9 9 10 12 13 15 17 18 19 21 23 24 26 28 29 31 31 31 30 28 25 23 20 18 17 16 16 15 15
Wind_Direction
245 241 240 242 243 243 245 246 248 249 250 253 254 254 256 258 260 264 268 274 280 284 286 288 288 289 290 289 290 292 294 295 295 295 294 294 294 294 294 294 295 295 296 296
250 248 245 244 244 245 247 248 249 250 251 252 251 252 253 255 259 264 269 275 280 284 286 287 287 289 289 291 294 297 296 295 294 292 292 292 292 292 292 293 294 295 296 297
252 251 251 247 245 245 246 249 252 253 254 253 252 254 256 259 264 268 273 277 281 283 285 286 288 291 294 296 297 297 296 294 292 291 290 290 290 291 292 293 294 295 296 296
260 260 259 256 254 253 252 253 255 259 262 267 268 268 268 270 273 275 277 280 282 284 286 288 290 293 295 295 295 295 294 292 290 289 289 290 291 292 292 293 294 295 296 297
263 265 268 270 271 270 269 268 268 269 270 272 274 275 276 277 278 279 279 281 283 286 288 290 292 294 294 295 295 293 291 289 288 288 289 291 292 292 292 293 294 295 296 297
263 263 266 269 271 272 273 272 271 270 270 271 273 274 275 276 277 278 280 283 285 287 289 291 293 294 294 294 293 291 289 288 288 289 290 291 291 292 292 293 294 295 296 297
266 264 263 265 266 267 266 265 266 266 267 270 272 274 277 279 280 282 283 285 287 289 290 291 292 292 292 291 290 289 289 289 290 290 290 291 292 292 293 294 294 295 296 297
269 265 263 263 263 263 264 265 266 267 269 271 273 275 277 278 280 282 284 286 287 289 290 290 290 289 289 288 288 288 289 289 289 289 290 291 292 293 294 294 296 296 297 298
269 264 261 259 261 264 266 266 267 269 270 272 273 275 276 278 280 281 283 285 286 287 287 288 288 288 288 288 289 289 289 289 290 290 291 292 293 294 295 297 298 299 300 301
275 269 265 264 264 263 264 266 268 268 269 271 272 274 276 278 280 282 283 284 285 286 287 287 288 288 288 289 289 291 292 292 293 293 294 295 296 297 298 300 301 301 301 301
281 276 272 270 268 267 267 268 268 269 270 272 274 275 277 279 281 283 285 286 287 289 290 291 292 293 293 294 294 294 295 295 295 296 297 298 299 300 301 301 301 302 302 302
288 282 279 276 275 274 273 273 273 273 273 274 275 277 279 282 285 287 289 292 294 296 298 298 299 299 298 298 298 298 298 298 299 300 300 301 302 303 303 303 304 305 306 305
295 291 288 284 282 281 279 278 277 277 276 276 277 278 281 285 288 293 298 302 303 304 306 307 306 305 304 304 304 304 304 304 304 303 304 304 305 306 307 308 309 312 314 314
304 301 297 294 292 289 285 282 279 278 277 277 278 281 284 289 296 304 308 312 316 319 319 318 316 314 314 313 312 311 310 309 308 307 307 308 309 311 313 316 320 325 328 332
310 308 307 306 305 304 299 293 285 279 282 282 285 290 291 305 315 323 333 340 339 335 331 328 327 326 324 323 321 320 318 316 314 312 313 315 318 321 325 330 338 345 354 13
312 312 316 330 344 358 10 12 20 51 70 66 70 21 11 8 18 20 12 1 352 346 343 341 340 339 337 336 334 333 331 328 326 326 329 334 340 347 355 7 20 32 48 68
312 313 333 10 30 40 46 56 67 87 95 98 95 86 77 68 55 38 21 9 2 359 358 356 354 351 350 348 347 346 345 345 347 352 1 10 21 36 51 64 69 73 79 86
312 320 5 28 38 49 64 73 85 93 93 94 94 89 82 69 54 39 28 20 16 13 10 8 6 4 2 1 0 1 4 10 18 30 39 52 64 76 82 85 85 86 89 92
298 335 45 61 69 83 92 95 96 97 98 99 96 90 80 66 53 43 36 31 28 24 21 19 17 17 17 17 19 22 28 37 46 55 66 76 83 86 88 89 90 90 91 92
244 144 118 111 108 108 106 103 103 105 105 104 98 89 78 66 56 49 44 40 36 32 30 28 27 27 28 30 34 39 46 53 61 69 76 81 85 89 91 91 90 90 89 89
199 163 142 135 127 121 113 110 113 115 112 107 99 90 78 67 59 54 49 44 41 37 35 34 35 36 37 40 44 50 55 60 66 72 78 84 88 90 91 89 88 87 86 85
186 171 158 150 141 132 124 123 126 125 121 114 103 92 80 69 61 56 52 48 45 42 40 40 41 42 43 46 49 52 56 61 67 72 78 83 85 87 87 86 84 83 81 79
185 178 169 160 151 143 137 136 138 137 131 123 108 93 82 72 65 60 56 52 49 46 45 44 44 45 47 49 51 53 56 60 63 68 73 78 81 83 84 83 81 79 76 72
186 182 177 171 161 153 149 147 149 150 144 132 115 97 85 76 69 65 61 56 53 51 49 48 47 47 49 51 52 53 55 56 58 61 66 72 78 81 82 81 79 76 72 69
188 185 181 177 172 168 163 160 162 164 158 144 127 108 93 82 74 70 66 62 58 56 54 52 51 50 51 52 52 52 53 53 54 56 60 67 75 82 85 84 82 78 73 70
191 190 189 187 185 183 180 178 176 176 170 159 143 123 105 92 84 78 73 68 63 60 58 56 54 53 53 53 53 53 53 53 53 54 57 63 72 82 88 89 86 82 78 75
197 196 197 196 196 196 194 190 187 185 180 171 160 141 123 108 98 88 80 73 68 65 62 59 57 55 54 54 54 54 54 54 55 55 58 63 70 78 85 87 86 83 81 79